Location: Geremba
(10.4250°N, 67.2394°W)
Time: 11:54:15
(UTC+00:00)

Centaur AC-72 - Pass Details

Date: 23 May 2024
Orbit: 1161 x 35195 km, 19.0° (Epoch: 20 June)

Event Time Altitude Azimuth Distance (km) Brightness Sun altitude
Rises 00:28:43 0° 247° (WSW) 15,718 9.2 -24.0°
Reaches altitude 10° 00:41:56 10° 247° (WSW) 17,577 9.3 -26.8°
Drops below altitude 10° 06:12:35 10° 273° (W) 38,361 10.3 -49.3°
Maximum altitude 10:07:09 90° 112° (ESE) 2,004 4.2 -0.6°
Sets 10:15:50 0° 107° (ESE) 4,053 6.7 1.4°
